Location: Grisols
(45.0093°N, 3.1167°E)
Time: 12:16:48
(UTC+00:00)

USA 116 - Pass Details

Date: 21 October 2019
Orbit: 405 x 834 km, 97.9° (Epoch: 18 November)

Event Time Altitude Azimuth Distance (km) Brightness Sun altitude
Rises 18:05:52 0° 16° (NNE) 2,375 6.8 -13.5°
Reaches altitude 10° 18:07:49 10° 20° (NNE) 1,533 5.8 -13.9°
Maximum altitude 18:11:03 63° 102° (ESE) 511 3.2 -14.5°
Drops below altitude 10° 18:14:33 10° 184° (S) 1,663 6.2 -15.1°
Sets 18:16:44 0° 188° (S) 2,602 7.3 -15.5°
